OK6FS-6 Weather Reports


time (UTC)temp
C
wind
direction
speed
KPH
gust
KPH
rain 1hr
cm
rain 24hr
cm
rain mn
cm
humidity
%
barometer
mb
20260507211841 16 295 4.8 6.4 0.00 0.00 0.00 77 1017.0
20260507210638 16 297 1.6 4.8 0.00 0.00 0.00 77 1016.8
20260507205425 17 290 3.2 4.8 0.00 0.00 0.00 78 1016.8
20260507204237 17 299 1.6 3.2 0.00 0.00 0.00 77 1016.7
20260507203038 17 315 0.0 0.0 0.00 0.00 0.00 78 1016.6
20260507201826 17 0.0 0.0 0.00 0.00 0.00 75 1016.5
20260507200632 17 211 0.0 1.6 0.00 0.00 0.00 73 1016.3
20260507195439 17 0.0 0.0 0.00 0.00 0.00 71 1016.2
20260507194246 17 338 0.0 0.0 0.00 0.00 0.00 71 1016.1
20260507193047 17 308 0.0 0.0 0.00 0.00 0.00 71 1016.0
20260507191844 17 0.0 0.0 0.00 0.00 0.00 69 1015.9
20260507190631 18 0.0 0.0 0.00 0.00 0.00 68 1015.7
20260507185439 18 0.0 0.0 0.00 0.00 0.00 67 1015.7
20260507184245 18 0.0 0.0 0.00 0.00 0.00 63 1015.6
20260507183042 18 293 1.6 1.6 0.00 0.00 0.00 65 1015.5
20260507181908 18 228 0.0 3.2 0.00 0.00 0.00 65 1015.4
20260507180654 18 271 1.6 3.2 0.00 0.00 0.00 65 1015.3
20260507175450 18 242 1.6 6.4 0.00 0.00 0.00 64 1015.1
20260507174232 18 34 1.6 3.2 0.00 0.00 0.00 61 1014.9
20260507173030 18 187 1.6 3.2 0.00 0.00 0.00 58 1014.8
20260507171836 19 296 4.8 9.7 0.00 0.00 0.00 54 1014.9
20260507170623 20 237 11.3 16.1 0.00 0.00 0.00 49 1014.7
20260507165430 21 233 8.0 9.7 0.00 0.00 0.00 46 1014.3
20260507164257 22 249 6.4 8.0 0.00 0.00 0.00 44 1014.0
20260507163033 22 218 3.2 6.4 0.00 0.00 0.00 42 1013.8
20260507161851 23 276 3.2 4.8 0.00 0.00 0.00 41 1013.8
20260507160638 23 254 4.8 9.7 0.00 0.00 0.00 40 1013.8
20260507155435 23 267 6.4 9.7 0.00 0.00 0.00 40 1013.6
20260507154232 23 280 6.4 11.3 0.00 0.00 0.00 39 1013.7
20260507153030 24 315 3.2 6.4 0.00 0.00 0.00 39 1013.8
20260507151857 24 277 6.4 14.5 0.00 0.00 0.00 39 1013.8
20260507150634 24 284 6.4 14.5 0.00 0.00 0.00 40 1013.7
20260507145431 23 313 4.8 6.4 0.00 0.00 0.00 42 1013.7
20260507144259 23 304 3.2 6.4 0.00 0.00 0.00 42 1013.7
20260507143025 23 220 1.6 6.4 0.00 0.00 0.00 41 1013.7
20260507141831 23 253 3.2 4.8 0.00 0.00 0.00 41 1013.8
20260507140628 23 307 3.2 4.8 0.00 0.00 0.00 40 1013.8
20260507135436 24 326 1.6 3.2 0.00 0.00 0.00 39 1013.8
20260507134242 25 287 3.2 8.0 0.00 0.00 0.00 40 1013.8
20260507133020 24 188 3.2 3.2 0.00 0.00 0.00 40 1013.9
20260507131827 24 237 1.6 3.2 0.00 0.00 0.00 42 1014.0
20260507130644 24 246 4.8 6.4 0.00 0.00 0.00 41 1014.1
20260507125441 23 262 4.8 8.0 0.00 0.00 0.00 41 1014.3
20260507124228 25 226 4.8 6.4 0.00 0.00 0.00 39 1014.3
20260507123115 25 277 6.4 14.5 0.00 0.00 0.00 40 1014.2
20260507121832 23 333 1.6 3.2 0.00 0.00 0.00 41 1014.4
20260507120649 23 274 6.4 11.3 0.00 0.00 0.00 40 1014.6
20260507115426 24 311 3.2 6.4 0.00 0.00 0.00 40 1014.6
20260507114240 24 305 3.2 6.4 0.00 0.00 0.00 39 1014.8
20260507113024 24 268 4.8 8.0 0.00 0.00 0.00 38 1014.9
20260507111825 24 298 3.2 6.4 0.00 0.00 0.00 40 1015.0
20260507110631 24 304 4.8 9.7 0.00 0.00 0.00 40 1015.1
20260507105439 24 308 3.2 4.8 0.00 0.00 0.00 43 1015.1
20260507104246 22 276 4.8 9.7 0.00 0.00 0.00 45 1015.2
20260507103023 21 263 4.8 8.0 0.00 0.00 0.00 45 1015.4
20260507101830 22 269 3.2 6.4 0.00 0.00 0.00 45 1015.4
20260507100626 22 244 6.4 11.3 0.00 0.00 0.00 44 1015.3
20260507095432 22 267 8.0 11.3 0.00 0.00 0.00 45 1015.3
20260507094229 22 325 4.8 4.8 0.00 0.00 0.00 46 1015.2
20260507093024 21 254 3.2 4.8 0.00 0.00 0.00 49 1015.2
20260507091831 20 300 4.8 11.3 0.00 0.00 0.00 49 1015.1
20260507090653 20 256 6.4 9.7 0.00 0.00 0.00 51 1015.1
20260507085439 19 274 8.0 14.5 0.00 0.00 0.00 53 1015.1
20260507084305 19 241 9.7 12.9 0.00 0.00 0.00 53 1015.0
20260507083042 19 218 8.0 14.5 0.00 0.00 0.00 54 1014.8
20260507081829 19 253 9.7 17.7 0.00 0.00 0.00 54 1014.5
20260507080633 19 274 8.0 12.9 0.00 0.00 0.00 54 1014.4
20260507075430 20 248 4.8 11.3 0.00 0.00 0.00 53 1014.3
20260507074237 20 237 8.0 14.5 0.00 0.00 0.00 54 1014.3
20260507073115 19 274 8.0 12.9 0.00 0.00 0.00 56 1014.3
20260507071827 17 256 8.0 14.5 0.00 0.00 0.00 63 1014.3
20260507070631 17 270 9.7 14.5 0.00 0.00 0.00 64 1014.3
20260507065438 17 249 9.7 17.7 0.00 0.00 0.00 65 1014.3
20260507064246 16 268 8.0 12.9 0.00 0.00 0.00 69 1014.3
20260507063032 16 264 6.4 11.3 0.00 0.00 0.00 68 1014.3
20260507061829 17 262 8.0 17.7 0.00 0.00 0.00 67 1014.1
20260507060637 16 279 12.9 17.7 0.00 0.00 0.00 68 1013.9
20260507055443 17 282 8.0 16.1 0.00 0.00 0.00 70 1013.6
20260507054240 16 257 8.0 9.7 0.00 0.00 0.00 72 1013.6
20260507053048 16 256 8.0 11.3 0.00 0.00 0.00 74 1013.5
20260507051835 16 250 4.8 6.4 0.00 0.00 0.00 75 1013.3
20260507050632 16 258 4.8 11.3 0.00 0.00 0.00 75 1013.3
20260507045438 16 274 6.4 9.7 0.00 0.00 0.00 76 1013.1
20260507044235 16 277 3.2 6.4 0.00 0.00 0.00 77 1013.0
20260507043051 16 299 3.2 4.8 0.00 0.00 0.00 77 1012.7
20260507041848 16 289 4.8 8.0 0.00 0.00 0.00 78 1012.6
20260507040625 16 281 4.8 9.7 0.00 0.00 0.00 77 1012.5
20260507035432 16 287 3.2 4.8 0.00 0.00 0.00 77 1012.4
20260507034229 16 288 4.8 8.0 0.00 0.00 0.00 77 1012.3
20260507033037 16 282 6.4 9.7 0.00 0.00 0.00 79 1012.1
20260507031854 16 278 6.4 9.7 0.00 0.00 0.00 78 1012.0
20260507030631 16 272 4.8 8.0 0.00 0.00 0.00 77 1011.9
20260507025448 16 280 4.8 11.3 0.00 0.00 0.00 78 1011.9
20260507024244 16 301 6.4 9.7 0.00 0.00 0.00 77 1011.8
20260507023032 16 264 6.4 9.7 0.00 0.00 0.00 76 1011.8
20260507021838 16 285 4.8 12.9 0.00 0.00 0.00 76 1011.5
20260507020635 16 280 8.0 12.9 0.00 0.00 0.00 76 1011.7
20260507015442 16 258 8.0 11.3 0.00 0.00 0.00 76 1011.5
20260507014229 16 258 8.0 9.7 0.00 0.00 0.00 76 1011.3
20260507013036 16 270 8.0 19.3 0.00 0.00 0.00 75 1011.3
20260507011823 16 249 8.0 19.3 0.00 0.00 0.00 74 1011.2
20260507010630 16 265 9.7 12.9 0.00 0.00 0.00 75 1011.0
20260507005437 16 271 9.7 14.5 0.00 0.00 0.00 73 1010.7
20260507004235 17 259 6.4 9.7 0.00 0.00 0.00 72 1010.5
20260507003032 17 253 4.8 6.4 0.00 0.00 0.00 73 1010.4
20260507001854 17 293 6.4 11.3 0.00 0.00 0.00 73 1010.3
20260507000645 17 272 6.4 9.7 0.00 0.00 0.00 74 1010.3
20260506235432 17 280 11.3 17.7 0.00 0.00 0.00 74 1010.3
20260506234249 17 278 8.0 12.9 0.00 0.00 0.00 72 1010.1
20260506233026 17 289 6.4 11.3 0.00 0.00 0.00 70 1009.8
20260506231844 17 274 6.4 9.7 0.00 0.00 0.00 67 1009.7
20260506230651 17 266 6.4 9.7 0.00 0.00 0.00 65 1009.4
20260506225438 18 268 4.8 9.7 0.00 0.00 0.00 64 1009.2
20260506224245 18 266 8.0 11.3 0.00 0.00 0.00 62 1009.1
20260506223052 18 260 6.4 8.0 0.00 0.00 0.00 60 1009.0
20260506221819 18 266 4.8 8.0 0.00 0.00 0.00 58 1008.7
20260506220627 18 287 1.6 3.2 0.00 0.00 0.00 59 1008.4
20260506215454 18 208 8.0 11.3 0.00 0.00 0.00 60 1008.2
20260506214341 18 248 6.4 16.1 0.00 0.00 0.00 61 1007.6
20260506213029 18 203 8.0 12.9 0.00 0.00 0.00 60 1007.3
20260506211847 18 190 8.0 11.3 0.00 0.00 0.00 59 1007.2